Simultaneous Nadir Overpasses (SNOs) Predictions

Prediction of SNOs between GOES-15 and METOP-A Satellite Orbit:

Table of predicted SNOs for the next 14.0 days since TLE Epoch: 5/2/2013
Index Date Time (GOES-15) GOES-15 Lat,Lon METOP-A Lat,Lon Distance(km) Time Diff (sec)
1 05/03/2013 18:41:54 -0.08,-135.37 0.62,-138.52 359.95 80
2 05/04/2013 18:23:55 -0.08,-135.38 -0.47,-133.53 210.51 80
3 05/06/2013 06:42:55 0.08,-135.37 -0.56,-138.12 313.49 80
4 05/07/2013 06:19:37 0.08,-135.38 0.60,-133.13 256.54 80
5 05/08/2013 18:38:29 -0.08,-135.41 0.41,-137.69 259.61 80
6 05/09/2013 18:20:29 -0.09,-135.42 -0.70,-132.70 310.25 80
7 05/11/2013 06:39:30 0.09,-135.40 -0.32,-137.29 214.62 80
8 05/12/2013 06:16:10 0.09,-135.40 0.78,-132.29 354.62 80
9 05/13/2013 18:35:03 -0.09,-135.42 0.21,-136.86 162.73 80
10 05/14/2013 18:17:03 -0.10,-135.42 -0.90,-131.86 406.40 80
11 05/16/2013 06:36:03 0.10,-135.40 -0.11,-136.45 119.28 80




NCC Satellite Simultaneous Nadir Overpasses (SNOs) Prediction Service
